Vertical_Velocity
-1 -2 -4 -5 -4 -4 -4 -3 -3 -3 -3 -4 -4 -4 -4 -4 -4 -5 -6 -6 -6 -6 -5 -4 -4 -4 -3 -3 -3 -3 -4 -4 -2 0 2 2 -1 -1 -0 2 4 4 3 -1 -6 -8 -6 -1 2 2 1 0 -0 -1 -1 -1 -1 -1 -0 0 2 3 4 4 5 5 5 6 6
-2 -2 -3 -4 -3 -3 -3 -2 -3 -4 -4 -4 -4 -4 -4 -4 -4 -5 -5 -5 -5 -5 -6 -5 -4 -3 -3 -3 -3 -4 -4 -4 -3 -1 0 -0 -1 -1 -1 2 4 6 4 -1 -6 -7 -4 2 3 3 2 1 0 -0 -1 -0 -0 -0 0 1 2 2 2 2 3 3 4 4 5
-4 -4 -4 -4 -4 -4 -4 -3 -2 -3 -3 -4 -4 -4 -4 -4 -5 -5 -5 -4 -4 -5 -6 -5 -4 -3 -2 -2 -3 -3 -4 -4 -3 -2 -1 -2 -2 -1 -1 1 4 6 5 -0 -5 -5 -2 3 4 4 4 3 3 2 2 1 1 1 1 2 2 1 1 2 2 3 3 4 4
-3 -4 -4 -5 -5 -4 -4 -3 -2 -2 -2 -2 -3 -4 -4 -5 -5 -5 -5 -5 -5 -5 -4 -4 -4 -3 -3 -3 -4 -3 -3 -2 -2 -2 -1 -2 -1 -1 -0 1 3 5 5 1 -4 -5 -3 1 2 3 4 5 5 5 4 4 3 3 3 2 1 1 2 3 3 4 4 4 4
-1 -2 -3 -3 -3 -3 -2 -2 -3 -3 -3 -2 -3 -4 -5 -5 -5 -5 -5 -6 -5 -4 -3 -3 -3 -4 -4 -4 -4 -3 -2 -1 -1 -1 -1 -2 -2 -1 -0 1 3 4 4 2 -2 -4 -5 -4 -2 -1 1 2 3 4 6 6 6 5 3 2 2 2 3 4 4 4 5 5 5
-3 -3 -3 -2 -2 -2 -2 -2 -1 -2 -2 -3 -3 -4 -4 -5 -5 -5 -5 -5 -4 -4 -3 -2 -3 -3 -3 -2 -2 -3 -2 -2 -1 -1 -1 -2 -2 -1 -1 0 2 3 4 3 0 -3 -5 -6 -5 -4 -3 -2 -1 1 3 4 6 5 4 3 3 3 4 5 7 7 7 7 7
-4 -4 -5 -4 -4 -3 -2 -2 -1 -1 -1 -2 -2 -3 -3 -3 -3 -4 -4 -4 -4 -4 -2 -2 -2 -3 -3 -3 -3 -3 -2 -2 -1 -1 -1 -1 -1 -1 -0 0 1 2 3 3 1 -2 -4 -6 -5 -5 -4 -4 -3 -1 -0 1 4 5 5 5 5 5 5 7 8 9 9 9 8
-3 -3 -4 -4 -3 -3 -2 -2 -2 -2 -2 -2 -2 -2 -3 -3 -3 -3 -3 -3 -3 -3 -2 -2 -3 -3 -3 -4 -4 -4 -3 -2 -1 -0 -0 -0 -1 -2 -1 -0 1 2 2 3 1 -1 -3 -5 -5 -5 -4 -4 -3 -2 -1 0 2 3 5 6 5 5 5 6 6 7 8 8 8
-3 -3 -3 -2 -2 -2 -2 -2 -2 -2 -2 -2 -2 -2 -2 -3 -3 -3 -3 -2 -2 -2 -3 -3 -3 -3 -3 -3 -3 -3 -3 -2 -1 -1 -0 -0 -1 -2 -3 -2 -1 -0 0 1 1 -0 -2 -4 -5 -5 -4 -3 -2 -1 -0 0 0 1 2 3 4 4 4 4 3 3 4 6 8
-4 -4 -4 -3 -2 -2 -2 -2 -2 -2 -1 -1 -1 -1 -2 -2 -2 -2 -2 -2 -2 -3 -3 -4 -3 -3 -2 -2 -3 -3 -3 -3 -2 -1 -0 0 -1 -2 -3 -3 -2 -2 -1 -0 0 0 -1 -3 -4 -4 -4 -2 -1 -1 -0 0 0 -0 -0 -0 1 1 2 1 1 1 1 1 5
-3 -3 -3 -3 -3 -2 -2 -2 -2 -2 -1 -1 -0 -0 -1 -1 -1 -1 -2 -2 -3 -3 -3 -3 -3 -2 -2 -2 -3 -3 -4 -3 -2 -2 -1 0 0 -0 -1 -2 -2 -1 -1 -1 -0 -0 -1 -3 -4 -4 -4 -3 -1 -1 -0 -0 0 0 0 -0 -1 -1 -1 -1 -0 -0 -0 -1 0
-3 -3 -3 -2 -2 -2 -2 -2 -2 -2 -1 -1 -0 0 0 -0 -1 -1 -1 -2 -2 -2 -2 -2 -2 -2 -3 -3 -4 -4 -4 -4 -3 -3 -2 -0 1 1 1 -0 -0 -0 -0 -0 -1 -1 -1 -2 -3 -4 -4 -3 -2 -1 -1 -1 -0 0 1 1 1 0 -0 -0 -1 -0 -0 0 -1
-3 -4 -3 -3 -2 -2 -2 -2 -2 -2 -1 -1 -0 0 0 -0 -0 -1 -1 -1 -2 -2 -2 -2 -2 -3 -3 -4 -4 -4 -5 -5 -4 -4 -3 -1 0 1 2 2 2 1 1 0 -0 -0 -1 -1 -3 -4 -4 -3 -3 -2 -1 -1 -1 -1 -0 -0 0 0 1 1 1 1 1 1 1
-3 -4 -4 -3 -3 -2 -2 -2 -2 -2 -2 -1 -1 -0 0 0 -0 -0 -1 -2 -2 -2 -2 -2 -3 -3 -3 -4 -4 -5 -5 -6 -5 -4 -3 -2 -0 1 1 2 3 3 3 2 1 1 0 -1 -2 -4 -4 -4 -4 -3 -2 -2 -2 -2 -2 -2 -2 -2 -1 0 1 1 1 1 1
-4 -4 -3 -2 -2 -2 -2 -2 -2 -2 -2 -2 -1 -1 0 0 -0 -1 -1 -1 -2 -2 -3 -3 -3 -3 -3 -4 -4 -4 -5 -5 -5 -4 -3 -2 -0 0 1 1 2 3 4 3 2 2 1 0 -1 -3 -4 -4 -4 -4 -3 -3 -3 -3 -3 -3 -3 -4 -4 -3 -1 0 1 0 0
-4 -3 -3 -3 -2 -2 -2 -2 -2 -2 -2 -2 -2 -1 -0 -0 -0 -1 -1 -1 -2 -2 -3 -4 -3 -3 -3 -3 -4 -4 -4 -5 -5 -4 -4 -3 -1 0 1 -0 0 1 2 2 2 2 1 1 0 -1 -3 -4 -3 -3 -3 -3 -3 -3 -3 -3 -4 -4 -5 -6 -4 -2 -0 1 0
-3 -3 -3 -2 -2 -2 -2 -2 -3 -2 -2 -2 -2 -2 -1 -1 -1 -1 -1 -2 -2 -2 -2 -3 -3 -3 -3 -3 -4 -4 -4 -5 -5 -4 -4 -4 -1 0 1 -1 -2 -1 -1 0 1 1 1 2 1 -0 -2 -3 -2 -2 -1 -1 -1 -2 -2 -3 -4 -4 -5 -6 -6 -5 -2 0 1
-2 -3 -2 -2 -1 -1 -2 -2 -2 -2 -2 -2 -2 -2 -2 -2 -2 -2 -2 -2 -2 -2 -2 -2 -3 -3 -4 -4 -4 -4 -4 -5 -5 -4 -4 -4 -2 -0 1 -0 -1 -1 -1 -0 0 0 1 2 1 0 -2 -3 -2 -2 -1 -0 -0 -0 -1 -1 -2 -3 -4 -5 -6 -7 -6 -4 -1
-2 -2 -2 -1 -1 -1 -1 -2 -2 -2 -2 -2 -2 -2 -2 -3 -2 -2 -1 -1 -1 -1 -2 -2 -2 -3 -3 -4 -4 -4 -5 -5 -5 -4 -4 -4 -3 -1 1 1 1 1 2 2 1 1 0 0 0 -1 -3 -4 -4 -3 -2 -1 -0 -0 -0 -0 -1 -2 -3 -4 -5 -6 -7 -7 -5
-2 -2 -2 -1 -0 -0 -1 -2 -2 -2 -2 -2 -2 -3 -3 -3 -2 -2 -2 -1 -1 -1 -1 -2 -2 -2 -2 -3 -3 -3 -4 -4 -4 -4 -4 -4 -3 -2 0 1 3 3 4 3 3 2 0 -1 -2 -3 -4 -5 -4 -4 -2 -2 -2 -2 -1 -1 -1 -1 -1 -2 -3 -4 -6 -6 -6
-2 -2 -2 -1 -0 -1 -1 -2 -2 -3 -3 -3 -3 -2 -2 -2 -3 -2 -2 -2 -1 -1 -1 -1 -2 -2 -2 -2 -2 -2 -2 -3 -4 -4 -4 -4 -4 -3 -2 0 2 4 4 4 3 2 1 -0 -2 -4 -5 -5 -4 -3 -3 -3 -3 -3 -2 -2 -2 -2 -1 -1 -2 -3 -4 -4 -5
-2 -2 -1 -1 -1 -1 -1 -2 -3 -3 -3 -2 -2 -2 -2 -2 -3 -3 -3 -2 -2 -1 -1 -1 -1 -2 -3 -3 -2 -2 -2 -3 -3 -4 -4 -4 -4 -4 -3 -2 1 3 4 4 3 1 2 5 2 -0 -2 -3 -2 -3 -3 -4 -4 -3 -3 -3 -3 -2 -2 -2 -2 -2 -2 -3 -4
-2 -2 -1 -1 -1 -1 -1 -2 -2 -2 -2 -1 -1 -1 -2 -2 -2 -2 -2 -3 -2 -2 -1 -1 -1 -2 -3 -3 -3 -3 -2 -2 -2 -2 -2 -2 -2 -3 -3 -3 -2 -0 1 3 2 3 7 17 13 7 2 0 0 -1 -2 -3 -4 -4 -4 -4 -4 -4 -4 -3 -3 -2 -2 -2 -2
-2 -2 -2 -1 -1 -1 -2 -2 -1 -1 -1 -2 -2 -2 -2 -2 -2 -2 -2 -2 -2 -2 -2 -1 -1 -2 -2 -3 -3 -3 -3 -2 -1 -1 -0 -0 -1 -1 -2 -3 -3 -3 -2 -1 0 4 13 30 23 14 6 3 2 1 -1 -2 -3 -4 -5 -6 -6 -6 -6 -5 -4 -3 -2 -2 -2
-2 -2 -2 -2 -1 -1 -1 -1 -1 -2 -2 -2 -2 -2 -1 -1 -1 -1 -1 -1 -1 -1 -1 -1 -1 -1 -1 -1 -2 -2 -3 -3 -2 -1 -1 -0 -0 -0 -1 -2 -3 -4 -4 -4 -2 1 10 31 26 18 10 6 3 0 -1 -2 -2 -3 -4 -5 -6 -8 -8 -9 -7 -4 -2 -1 -1
-2 -2 -2 -2 -2 -2 -2 -1 -2 -2 -2 -2 -1 -1 -1 -1 -1 -1 -1 -1 -1 -2 -2 -2 -1 -0 0 0 -0 -1 -1 -1 -2 -2 -2 -1 -1 -1 -1 -1 -2 -2 -3 -4 -4 -4 3 24 31 24 14 7 3 -0 -2 -2 -2 -2 -3 -4 -6 -7 -8 -10 -10 -8 -4 -1 -0
-2 -2 -2 -2 -2 -2 -2 -2 -2 -1 -1 -1 -1 -1 -1 -2 -2 -2 -2 -2 -2 -2 -2 -2 -1 -0 0 0 0 -0 -0 -1 -1 -1 -1 -2 -2 -2 -2 -2 -2 -2 -2 -3 -4 -5 -2 10 30 27 15 4 1 -0 -1 -2 -2 -3 -3 -4 -4 -5 -7 -9 -9 -8 -6 -2 -1
-2 -2 -2 -2 -2 -2 -2 -1 -1 -1 -1 -1 -1 -1 -2 -2 -3 -3 -2 -2 -2 -1 -1 -1 -1 -1 -0 -0 -0 -0 -1 -1 -1 -1 -1 -1 -2 -2 -3 -3 -2 -2 -2 -3 -4 -5 -4 -0 19 21 12 0 0 0 -0 -1 -2 -2 -2 -2 -2 -4 -5 -7 -7 -7 -6 -4 -2
-2 -2 -2 -2 -2 -2 -2 -1 -1 -1 -1 -1 -2 -2 -2 -1 -1 -1 -1 -1 -1 -1 -1 -1 -1 -1 -1 -0 -0 -0 -1 -1 -1 -1 -1 -1 -1 -1 -2 -2 -2 -2 -2 -3 -3 -4 -4 -3 11 14 10 1 1 2 2 1 0 -0 -1 -0 -0 -1 -3 -5 -6 -6 -5 -4 -2
-2 -2 -2 -2 -2 -2 -2 -1 -1 -1 -1 -1 -1 -1 -1 -1 -1 -0 -1 -1 -2 -2 -2 -2 -2 -2 -1 -1 -1 -1 -1 -1 -1 -1 -1 -1 -1 -1 -1 -1 -2 -2 -2 -2 -3 -4 -4 -4 6 13 14 6 3 4 5 4 3 2 1 1 0 -1 -2 -3 -4 -5 -5 -4 -2
-2 -2 -2 -2 -2 -2 -2 -1 -1 -1 -1 -1 -1 -1 -1 -2 -2 -3 -3 -2 -2 -2 -1 -1 -2 -1 -1 -1 -0 -0 -1 -1 -1 -1 -1 -1 -1 -1 -1 -1 -2 -2 -2 -2 -2 -3 -4 -5 -1 11 20 14 8 6 6 6 5 4 4 2 0 -1 -2 -3 -4 -4 -5 -4 -3
-3 -2 -2 -2 -2 -2 -1 -1 -1 -2 -1 -1 -1 -1 -1 -2 -3 -3 -3 -2 -1 -1 -0 -0 -0 -0 0 1 1 1 0 -0 -0 -0 -0 -1 -1 -2 -2 -2 -2 -1 -1 -1 -1 -1 -2 -3 -4 6 16 15 9 6 6 6 7 6 4 2 -0 -1 -1 -2 -3 -4 -4 -4 -3
-3 -3 -2 -2 -2 -1 -1 -1 -1 -1 -1 -1 -1 -2 -2 -1 -1 -1 -1 -1 -1 -1 -1 -1 -0 -0 -0 0 1 1 1 1 1 0 0 -0 -1 -2 -2 -2 -2 -2 -1 -1 -1 -1 -1 -1 -2 3 8 8 5 4 5 7 8 6 2 -0 -0 0 0 0 -1 -3 -4 -4 -4
-2 -2 -2 -2 -1 -1 -1 -1 -1 -1 -1 -1 -2 -2 -2 -1 -1 -1 -1 -1 -1 -1 -1 -1 -1 -1 -1 -1 -0 1 1 2 2 2 1 1 -0 -1 -2 -3 -3 -2 -2 -2 -1 -1 -0 -0 -0 2 4 4 4 5 6 8 6 2 -0 -1 -0 1 1 1 -0 -2 -4 -5 -4
-2 -2 -2 -1 -1 -1 -1 -1 -1 -1 -1 -1 -1 -1 -1 -1 -2 -2 -2 -2 -1 -1 -1 -0 -0 -1 -1 -1 -1 0 1 2 2 2 1 1 0 -1 -2 -2 -3 -2 -2 -2 -2 -1 -1 -1 2 5 6 5 6 7 7 7 3 1 -0 0 1 1 1 0 -0 -1 -2 -4 -4
-2 -2 -2 -1 -1 -1 -1 -1 -1 -2 -2 -1 -1 -0 -1 -2 -2 -2 -2 -1 -1 -1 -1 -1 -1 -1 -2 -2 -2 -1 -0 1 1 1 1 1 1 0 -1 -1 -2 -2 -2 -2 -2 -2 -2 -1 3 8 11 6 6 5 5 4 2 0 0 1 1 1 1 0 0 -0 -1 -3 -4
-2 -1 -1 -1 -1 -1 -1 -1 -1 -1 -1 -1 -1 -2 -2 -3 -3 -2 -1 -1 -1 -1 -2 -2 -2 -2 -3 -3 -4 -3 -2 -1 -1 -0 0 1 1 1 0 -0 -1 -2 -2 -2 -2 -2 -2 -2 2 10 13 4 2 2 3 2 0 -0 -0 0 1 1 1 0 1 0 -0 -1 -3
-1 -1 -1 -0 -1 -1 -2 -2 -2 -1 -1 -1 -2 -2 -2 -2 -2 -2 -2 -3 -3 -3 -3 -3 -3 -3 -4 -5 -5 -5 -4 -3 -2 -1 -1 -0 0 1 1 0 -1 -1 -2 -2 -2 -3 -3 -4 -1 8 12 1 -1 -0 1 1 -0 -1 -0 0 1 1 1 0 1 1 1 1 -1
-1 -1 -1 -0 -0 -1 -2 -2 -3 -2 -2 -2 -1 -1 -1 -1 -2 -3 -4 -4 -4 -4 -4 -4 -4 -4 -5 -5 -6 -5 -4 -3 -2 -2 -2 -2 -1 0 1 0 -0 -1 -1 -1 -2 -3 -4 -6 -5 4 9 -1 -2 -2 -1 -1 -0 -0 -0 -0 -0 -0 0 0 1 1 2 2 1
-1 -1 -1 -1 -0 -1 -1 -2 -3 -3 -3 -2 -1 -1 -1 -2 -3 -4 -4 -4 -4 -4 -4 -4 -4 -5 -5 -6 -6 -5 -4 -2 -2 -2 -3 -3 -1 -0 1 1 1 0 -0 -0 -1 -2 -3 -5 -5 1 6 1 -1 -3 -3 -2 1 1 1 -0 -1 -2 -1 0 1 2 3 3 3
-0 -0 -0 -1 -1 -1 -1 -1 -2 -2 -2 -2 -1 -1 -1 -2 -3 -3 -4 -4 -5 -4 -4 -4 -4 -5 -6 -7 -6 -5 -3 -2 -2 -2 -3 -3 -1 -0 1 1 1 1 1 0 -0 -0 -0 -1 -2 2 6 7 2 0 0 2 3 2 1 0 -1 -1 -1 -0 1 3 4 4 3
Height
3061 3058 3055 3052 3049 3046 3044 3040 3037 3033 3030 3026 3023 3019 3015 3012 3009 3005 3001 2998 2994 2990 2987 2984 2980 2978 2975 2973 2972 2970 2969 2967 2965 2963 2960 2958 2955 2953 2951 2948 2946 2943 2940 2937 2933 2930 2928 2925 2923 2920 2918 2915 2912 2910 2908 2906 2904 2902 2901 2899 2898 2897 2895 2894 2894 2893 2892 2892 2892
3059 3057 3054 3051 3048 3045 3042 3038 3035 3031 3028 3025 3021 3018 3014 3011 3008 3004 3000 2997 2993 2990 2986 2983 2979 2977 2974 2972 2971 2969 2968 2966 2964 2962 2960 2958 2955 2953 2951 2949 2946 2943 2940 2937 2934 2932 2929 2927 2924 2922 2919 2917 2914 2912 2910 2908 2906 2904 2903 2901 2900 2899 2898 2897 2896 2895 2894 2894 2893
3059 3055 3052 3049 3046 3043 3040 3037 3034 3030 3027 3024 3020 3017 3014 3010 3007 3003 3000 2996 2993 2989 2985 2982 2979 2976 2974 2971 2969 2968 2967 2965 2963 2961 2959 2957 2955 2953 2950 2949 2946 2944 2941 2938 2935 2933 2931 2929 2926 2924 2921 2919 2917 2914 2912 2910 2908 2907 2905 2904 2902 2901 2900 2899 2898 2897 2896 2895 2895
3058 3054 3052 3049 3046 3043 3039 3036 3033 3029 3026 3023 3019 3016 3013 3009 3006 3003 2999 2996 2992 2988 2985 2982 2978 2975 2973 2970 2968 2967 2965 2964 2962 2961 2959 2957 2954 2952 2950 2948 2946 2944 2941 2939 2936 2934 2931 2929 2927 2925 2923 2920 2919 2916 2914 2913 2911 2909 2908 2906 2904 2903 2902 2901 2899 2899 2898 2897 2896
3056 3053 3050 3048 3045 3042 3039 3035 3032 3029 3025 3022 3019 3015 3012 3008 3005 3001 2998 2994 2991 2988 2985 2981 2978 2975 2972 2969 2967 2966 2964 2963 2962 2960 2958 2956 2954 2952 2950 2948 2946 2944 2941 2939 2936 2934 2932 2930 2928 2926 2924 2922 2919 2918 2916 2914 2913 2911 2909 2908 2906 2905 2904 2902 2901 2900 2899 2898 2897
3055 3052 3049 3046 3044 3040 3037 3034 3031 3028 3024 3021 3018 3014 3011 3007 3004 3001 2997 2994 2991 2988 2984 2981 2977 2974 2971 2969 2966 2965 2963 2962 2961 2959 2957 2956 2954 2952 2950 2948 2946 2944 2942 2939 2937 2934 2932 2930 2928 2926 2924 2922 2920 2919 2917 2915 2914 2912 2911 2909 2908 2906 2905 2904 2903 2902 2901 2900 2899
3054 3051 3049 3045 3043 3039 3036 3033 3030 3026 3023 3020 3017 3014 3010 3007 3004 3000 2997 2994 2990 2987 2984 2980 2977 2974 2971 2968 2966 2964 2962 2961 2959 2958 2957 2955 2953 2951 2949 2947 2945 2944 2942 2939 2937 2934 2932 2930 2929 2927 2925 2923 2921 2919 2918 2916 2914 2913 2912 2910 2909 2908 2906 2905 2904 2903 2902 2901 2900
3053 3050 3048 3045 3042 3039 3035 3032 3029 3026 3022 3019 3016 3013 3010 3006 3003 3000 2996 2993 2989 2986 2983 2980 2977 2974 2970 2968 2965 2963 2961 2960 2959 2957 2956 2954 2953 2951 2949 2947 2945 2943 2941 2939 2937 2935 2933 2931 2929 2927 2925 2924 2922 2920 2919 2917 2916 2914 2913 2911 2910 2909 2908 2906 2905 2904 2903 2902 2901
3052 3049 3046 3044 3041 3038 3034 3031 3028 3025 3022 3019 3015 3012 3009 3006 3003 2999 2996 2993 2989 2986 2983 2979 2976 2973 2970 2967 2964 2962 2960 2959 2957 2956 2954 2953 2952 2950 2949 2947 2945 2943 2941 2939 2937 2935 2933 2931 2929 2928 2926 2924 2923 2921 2919 2918 2916 2915 2914 2912 2911 2910 2908 2907 2906 2904 2903 2902 2901
3051 3048 3045 3043 3039 3037 3034 3030 3027 3024 3021 3018 3015 3012 3009 3005 3002 2999 2996 2993 2989 2985 2982 2979 2975 2973 2970 2967 2964 2962 2959 2958 2956 2954 2953 2952 2951 2949 2948 2946 2944 2942 2940 2939 2937 2935 2933 2931 2929 2928 2926 2925 2923 2922 2920 2919 2917 2916 2914 2913 2911 2910 2909 2908 2906 2905 2904 2902 2901
3050 3047 3045 3042 3039 3036 3033 3030 3026 3023 3020 3017 3014 3011 3008 3005 3002 2999 2995 2992 2989 2985 2982 2979 2975 2972 2969 2967 2964 2961 2959 2957 2955 2954 2952 2951 2950 2948 2947 2945 2944 2942 2940 2939 2937 2935 2933 2931 2929 2928 2927 2925 2924 2922 2921 2919 2918 2916 2915 2914 2912 2911 2909 2908 2907 2905 2904 2903 2901
3049 3046 3044 3041 3038 3035 3032 3029 3026 3023 3020 3017 3014 3011 3008 3004 3001 2998 2995 2991 2988 2985 2982 2978 2975 2972 2969 2966 2963 2961 2958 2956 2954 2953 2951 2950 2949 2947 2946 2944 2943 2941 2940 2938 2936 2934 2933 2931 2929 2928 2926 2925 2924 2922 2921 2919 2918 2916 2915 2914 2912 2911 2909 2908 2907 2906 2904 2903 2901
3049 3046 3043 3040 3037 3034 3031 3028 3025 3022 3019 3016 3013 3010 3007 3004 3001 2998 2994 2991 2988 2985 2981 2978 2975 2971 2968 2965 2963 2960 2958 2955 2954 2952 2950 2949 2948 2946 2945 2944 2942 2941 2939 2937 2936 2934 2932 2930 2929 2927 2926 2924 2923 2922 2921 2919 2918 2916 2915 2914 2912 2911 2909 2908 2907 2905 2904 2903 2901
3048 3045 3042 3039 3036 3033 3030 3028 3024 3021 3019 3015 3012 3009 3007 3004 3000 2997 2994 2991 2988 2984 2981 2978 2974 2971 2968 2965 2962 2959 2957 2955 2953 2951 2949 2948 2946 2945 2944 2942 2941 2939 2938 2936 2935 2933 2932 2930 2928 2927 2925 2924 2923 2921 2920 2919 2917 2916 2915 2913 2912 2910 2909 2908 2906 2905 2903 2902 2901
3046 3044 3041 3038 3035 3033 3030 3027 3024 3021 3018 3015 3012 3009 3006 3003 3000 2997 2994 2991 2987 2984 2981 2977 2974 2971 2968 2965 2962 2959 2957 2954 2952 2950 2949 2947 2946 2944 2943 2941 2939 2938 2937 2935 2934 2932 2931 2929 2927 2926 2924 2923 2922 2921 2920 2918 2917 2915 2914 2913 2911 2910 2909 2907 2905 2904 2902 2901 2899
3046 3043 3040 3037 3035 3032 3029 3026 3023 3020 3017 3014 3011 3008 3005 3002 2999 2996 2993 2990 2987 2984 2980 2977 2974 2971 2968 2964 2961 2959 2956 2954 2952 2950 2948 2947 2945 2944 2942 2940 2938 2937 2935 2934 2933 2931 2930 2928 2927 2925 2924 2923 2921 2920 2919 2918 2916 2915 2914 2912 2911 2909 2908 2906 2904 2903 2901 2899 2898
3045 3042 3039 3037 3034 3031 3028 3025 3023 3019 3016 3013 3010 3007 3004 3002 2999 2996 2993 2989 2986 2983 2980 2977 2974 2970 2967 2964 2961 2958 2956 2954 2951 2949 2948 2946 2944 2943 2941 2939 2938 2936 2934 2933 2931 2930 2929 2927 2926 2924 2923 2922 2921 2919 2919 2917 2916 2914 2913 2912 2910 2909 2907 2906 2904 2902 2900 2898 2897
3044 3042 3039 3036 3034 3031 3028 3025 3022 3019 3016 3013 3010 3007 3004 3001 2998 2995 2992 2989 2986 2983 2980 2977 2974 2970 2967 2964 2961 2958 2955 2953 2951 2949 2947 2945 2944 2943 2941 2939 2937 2935 2934 2932 2931 2929 2928 2926 2925 2923 2922 2921 2920 2919 2918 2916 2915 2914 2912 2911 2909 2908 2906 2905 2903 2901 2899 2897 2895
3044 3041 3038 3036 3033 3030 3027 3024 3021 3018 3015 3012 3009 3006 3003 3000 2998 2994 2992 2989 2986 2983 2979 2976 2973 2970 2967 2964 2961 2958 2955 2953 2950 2949 2947 2945 2944 2942 2940 2939 2937 2935 2933 2932 2930 2929 2927 2925 2924 2923 2921 2920 2919 2918 2916 2915 2914 2912 2911 2909 2908 2906 2905 2904 2902 2900 2899 2897 2894
3043 3040 3038 3035 3032 3029 3027 3024 3021 3018 3015 3012 3009 3006 3003 3000 2997 2994 2991 2988 2985 2982 2979 2976 2973 2970 2967 2964 2961 2958 2955 2952 2950 2948 2946 2944 2943 2941 2940 2938 2937 2935 2933 2931 2930 2928 2927 2925 2923 2922 2920 2919 2918 2916 2915 2914 2912 2911 2909 2908 2906 2905 2903 2902 2900 2899 2897 2895 2894
3042 3040 3037 3034 3032 3029 3026 3023 3020 3017 3014 3011 3008 3005 3002 2999 2996 2994 2991 2988 2985 2982 2979 2976 2973 2970 2967 2964 2961 2958 2955 2953 2950 2947 2945 2944 2942 2941 2939 2938 2936 2934 2933 2931 2929 2928 2926 2924 2923 2921 2919 2918 2917 2915 2914 2913 2911 2909 2908 2906 2905 2903 2901 2900 2898 2897 2895 2894 2892
3041 3039 3036 3034 3031 3029 3025 3023 3020 3017 3014 3011 3008 3005 3002 2999 2996 2993 2990 2987 2984 2982 2979 2976 2973 2969 2967 2964 2961 2958 2955 2953 2950 2947 2945 2943 2941 2940 2939 2937 2935 2934 2932 2930 2929 2927 2926 2924 2922 2920 2918 2917 2916 2914 2913 2911 2910 2908 2907 2905 2903 2902 2900 2898 2896 2894 2893 2891 2890
3041 3038 3036 3033 3031 3028 3025 3022 3019 3016 3013 3010 3007 3004 3002 2999 2996 2993 2990 2987 2984 2981 2979 2976 2973 2969 2966 2964 2961 2958 2955 2953 2950 2947 2945 2943 2941 2939 2937 2936 2934 2933 2931 2929 2928 2927 2925 2924 2922 2919 2917 2916 2915 2913 2912 2910 2909 2907 2905 2903 2902 2900 2898 2896 2894 2892 2890 2889 2887
3040 3038 3035 3033 3030 3027 3024 3022 3019 3016 3013 3010 3007 3004 3001 2999 2996 2993 2990 2987 2984 2981 2978 2975 2973 2969 2966 2964 2960 2958 2955 2953 2950 2948 2945 2943 2940 2938 2936 2935 2933 2932 2930 2929 2927 2926 2926 2925 2922 2919 2917 2915 2914 2912 2910 2909 2907 2905 2903 2902 2900 2898 2896 2894 2892 2890 2888 2886 2884
3039 3037 3034 3032 3029 3027 3024 3021 3019 3016 3013 3010 3007 3004 3001 2998 2995 2993 2990 2987 2984 2981 2978 2975 2972 2969 2966 2964 2961 2958 2955 2953 2950 2948 2945 2943 2940 2938 2936 2934 2932 2931 2929 2928 2926 2925 2925 2924 2922 2919 2916 2914 2913 2911 2909 2907 2905 2904 2902 2899 2898 2896 2894 2892 2889 2887 2885 2883 2882
3039 3036 3034 3031 3029 3026 3024 3021 3018 3015 3013 3009 3007 3004 3001 2998 2995 2992 2989 2987 2984 2981 2978 2975 2972 2969 2967 2964 2961 2958 2955 2953 2950 2948 2945 2943 2940 2938 2936 2934 2932 2930 2928 2927 2925 2924 2924 2924 2923 2919 2915 2913 2912 2909 2908 2906 2904 2902 2900 2898 2895 2893 2891 2889 2886 2884 2882 2880 2879
3038 3036 3033 3031 3029 3026 3023 3021 3018 3015 3012 3009 3006 3004 3001 2998 2995 2992 2989 2987 2984 2981 2978 2975 2973 2970 2967 2964 2961 2959 2956 2953 2950 2948 2945 2943 2940 2938 2935 2933 2931 2929 2928 2926 2924 2924 2923 2922 2922 2919 2915 2912 2910 2909 2906 2904 2902 2900 2898 2895 2893 2891 2888 2885 2883 2881 2879 2878 2876
3038 3035 3033 3030 3028 3025 3023 3020 3018 3015 3012 3009 3006 3003 3000 2998 2995 2992 2989 2986 2984 2981 2978 2975 2972 2970 2967 2964 2962 2959 2956 2953 2950 2948 2945 2943 2940 2938 2935 2933 2931 2929 2927 2925 2924 2923 2922 2921 2921 2919 2915 2912 2910 2908 2905 2903 2901 2898 2896 2894 2891 2889 2886 2883 2881 2879 2877 2875 2874
3037 3034 3032 3030 3028 3025 3023 3020 3017 3014 3012 3009 3006 3003 3000 2997 2994 2992 2989 2986 2983 2980 2978 2975 2972 2970 2967 2964 2962 2959 2956 2953 2950 2948 2945 2943 2940 2938 2935 2933 2931 2929 2927 2925 2924 2922 2921 2920 2919 2918 2916 2912 2909 2907 2905 2903 2900 2897 2895 2892 2890 2887 2885 2882 2879 2877 2874 2873 2872
3036 3034 3032 3029 3027 3025 3022 3019 3017 3014 3011 3009 3006 3003 3000 2997 2994 2991 2989 2986 2983 2981 2978 2975 2972 2969 2967 2964 2962 2959 2956 2954 2951 2948 2945 2943 2940 2938 2935 2933 2931 2929 2927 2925 2923 2922 2920 2919 2918 2918 2916 2911 2909 2907 2905 2902 2899 2897 2894 2892 2889 2886 2884 2881 2878 2875 2873 2871 2870
3036 3034 3031 3029 3027 3024 3022 3019 3017 3014 3011 3008 3005 3003 3000 2997 2994 2991 2989 2986 2983 2980 2978 2975 2972 2970 2967 2964 2962 2959 2957 2954 2951 2948 2946 2943 2940 2938 2935 2933 2931 2929 2926 2925 2923 2921 2920 2918 2917 2917 2915 2912 2909 2907 2904 2902 2899 2896 2894 2891 2888 2886 2883 2880 2877 2874 2872 2870 2868
3035 3033 3031 3029 3026 3024 3022 3019 3016 3014 3011 3008 3005 3003 3000 2997 2994 2992 2989 2986 2983 2980 2977 2974 2972 2969 2967 2964 2962 2959 2957 2954 2951 2949 2946 2943 2941 2938 2936 2933 2931 2929 2926 2924 2923 2921 2919 2918 2916 2915 2914 2912 2909 2906 2904 2901 2899 2896 2893 2890 2888 2885 2882 2879 2876 2874 2871 2869 2867
3034 3032 3030 3028 3026 3024 3021 3019 3016 3014 3011 3008 3005 3002 2999 2997 2994 2991 2988 2985 2983 2980 2977 2975 2972 2969 2966 2964 2962 2959 2957 2954 2952 2949 2947 2944 2941 2939 2936 2934 2931 2929 2926 2924 2922 2920 2919 2917 2916 2915 2914 2911 2909 2906 2904 2901 2898 2895 2892 2889 2887 2884 2882 2879 2876 2873 2870 2868 2866
3034 3032 3030 3028 3025 3023 3021 3019 3016 3013 3010 3008 3005 3002 2999 2996 2994 2991 2988 2986 2983 2980 2978 2975 2972 2969 2967 2964 2962 2959 2957 2954 2952 2949 2947 2944 2942 2939 2936 2934 2931 2929 2927 2924 2923 2920 2919 2917 2915 2914 2913 2911 2908 2906 2903 2901 2898 2894 2891 2889 2886 2884 2881 2879 2876 2873 2869 2867 2865
3034 3031 3029 3027 3025 3023 3021 3018 3016 3013 3010 3008 3005 3002 2999 2996 2994 2991 2989 2986 2983 2980 2978 2974 2972 2969 2966 2964 2961 2959 2956 2954 2952 2949 2947 2945 2942 2939 2937 2934 2932 2929 2927 2925 2923 2921 2919 2917 2915 2914 2912 2910 2908 2906 2903 2900 2897 2894 2891 2888 2886 2884 2881 2878 2875 2872 2869 2866 2864
3033 3031 3029 3027 3025 3023 3020 3018 3016 3013 3010 3008 3004 3002 2999 2996 2994 2991 2989 2986 2983 2980 2977 2974 2971 2969 2966 2963 2960 2958 2956 2954 2952 2949 2947 2945 2943 2940 2937 2935 2932 2930 2928 2925 2923 2921 2919 2917 2915 2914 2912 2911 2908 2905 2903 2900 2896 2893 2890 2888 2885 2883 2880 2877 2874 2872 2869 2866 2864
3033 3031 3029 3027 3024 3022 3020 3018 3015 3013 3010 3007 3005 3002 2999 2997 2994 2991 2988 2985 2983 2980 2977 2974 2971 2968 2965 2963 2960 2958 2955 2953 2951 2949 2947 2945 2943 2940 2938 2935 2933 2930 2928 2926 2924 2921 2919 2917 2915 2914 2913 2910 2908 2905 2902 2899 2895 2892 2889 2887 2885 2882 2880 2877 2874 2872 2869 2867 2864
3032 3030 3028 3026 3024 3022 3020 3017 3015 3012 3010 3007 3005 3002 2999 2996 2994 2991 2988 2985 2983 2980 2977 2974 2971 2968 2965 2963 2960 2957 2955 2953 2951 2949 2947 2945 2943 2940 2938 2935 2933 2930 2928 2926 2924 2921 2919 2917 2915 2914 2912 2910 2907 2904 2902 2899 2895 2892 2889 2887 2884 2882 2879 2877 2874 2872 2869 2867 2865
3032 3030 3028 3026 3024 3022 3019 3017 3015 3012 3010 3007 3005 3002 2999 2996 2994 2991 2989 2986 2983 2980 2977 2974 2971 2968 2965 2962 2959 2957 2955 2953 2951 2949 2947 2945 2943 2940 2938 2936 2933 2931 2928 2926 2924 2921 2919 2917 2914 2913 2912 2909 2906 2903 2900 2897 2894 2892 2889 2887 2884 2882 2879 2877 2875 2873 2870 2868 2866
3031 3029 3028 3026 3024 3021 3019 3017 3014 3012 3010 3007 3005 3002 2999 2997 2994 2991 2989 2986 2983 2980 2978 2974 2972 2969 2965 2963 2960 2958 2955 2954 2951 2949 2947 2945 2943 2940 2938 2936 2934 2931 2928 2926 2924 2921 2919 2917 2914 2913 2912 2909 2905 2902 2899 2896 2894 2892 2889 2887 2884 2882 2879 2877 2875 2873 2871 2869 2867
3031 3029 3027 3025 3023 3021 3019 3017 3014 3012 3009 3007 3004 3002 3000 2997 2994 2992 2989 2986 2984 2981 2978 2975 2972 2969 2966 2963 2960 2958 2956 2954 2952 2949 2947 2945 2943 2940 2938 2936 2934 2931 2929 2926 2924 2921 2919 2917 2914 2913 2911 2909 2905 2901 2899 2896 2894 2892 2890 2887 2885 2882 2880 2878 2876 2874 2872 2870 2868